Terminal Aerodrome Forecast
Issued by NWS

Home | Current Version | Previous Version | Graphics & Text | Print | Product List | Glossary On
Versions: 1 2 3 4 5 6 7 8 9 10 11 12 13 14
409
FTUS43 KTOP 190146 AAA
TAFMHK
TAF AMD
KMHK 190146Z 1902/1924 21006KT P6SM BKN250 WS010/23040KT
     FM191400 20007KT P6SM BKN250
     FM191700 21010G18KT P6SM BKN250=

USA.gov is the U.S. government's official web portal to all federal, state and local government web resources and services.